User: anonymous   Login
Location: Peebles
(55.6412°N, 3.1714°W)
Time: 12:44:19
(UTC+00:00)
Language:

Cosmos 2297 Rocket - Orbit

View from above orbital plane
View from above orbital plane
View from above satellite
View from above satellite

Ground track
Ground track

The orbit data is extracted from the following two-line orbital elements,

1 23405U 94077B   21341.50752279  .00000260  00000-0  15801-3 0  9995
2 23405  70.9835  19.1130 0003306 320.2538  39.8342 14.15245268396463
Epoch (UTC): 07 December 2021 12:10:49
Eccentricity: 0.0003306
inclination: 70.9835°
perigee height: 839 km
apogee height: 844 km
right ascension of ascending node: 19.1130°
argument of perigee: 320.2538°
revolutions per day: 14.15245268
mean anomaly at epoch: 39.8342°
orbit number at epoch: 39646

The dashed part of the orbit path shows where the satellite is in the earth's shadow,  

DLR